Simultaneous Nadir Overpasses (SNOs) Predictions

Prediction of SNOs between AQUA and METOP-B Satellite Orbit:

Table of predicted SNOs for the next 14.0 days since TLE Epoch: 12/9/2023
Index Date (AQUA) Time (AQUA) Lat,Lon (AQUA) SZA (AQUA ) Date (METOP-B) Time (METOP-B) Lat,Lon (METOP-B) SZA (METOP-B ) Distance(km) Time Diff (sec)
1 12/09/2023 15:39:30 75.07, -58.34 97.83 12/09/2023 15:38:46 75.08, -58.30 97.83 1.18 44
2 12/09/2023 16:28:54 -75.13, 109.16 82.12 12/09/2023 16:29:26 -75.15, 109.23 82.10 3.08 32
3 12/12/2023 08:41:19 -75.12,-133.87 81.90 12/12/2023 08:41:01 -75.12,-133.75 81.89 3.60 18
4 12/12/2023 09:30:44 75.17, 33.63 98.17 12/12/2023 09:31:40 75.17, 33.71 98.16 2.21 56
5 12/15/2023 00:53:43 -75.09, -16.87 81.75 12/15/2023 00:52:36 -75.09, -16.75 81.74 3.43 67
6 12/15/2023 01:43:08 75.15, 150.63 98.32 12/15/2023 01:43:15 75.13, 150.70 98.30 3.05 7
7 12/15/2023 02:32:39 -75.55, -42.84 81.27 12/15/2023 02:33:47 -75.59, -40.61 81.25 62.06 68
8 12/17/2023 17:55:31 75.12, -92.35 98.41 12/17/2023 17:54:50 75.09, -92.33 98.38 3.61 41
9 12/17/2023 18:44:55 -75.17, 75.17 81.54 12/17/2023 18:45:30 -75.17, 75.23 81.54 1.76 35
10 12/20/2023 10:07:41 74.52, 26.14 97.87 12/20/2023 10:06:36 74.46, 23.04 97.85 92.43 65
11 12/20/2023 10:57:16 -75.13,-167.77 81.52 12/20/2023 10:57:04 -75.12,-167.81 81.52 1.30 12
12 12/20/2023 11:46:41 75.19, -0.30 98.56 12/20/2023 11:47:42 75.20, -0.24 98.56 2.14 61



Historial Predications of SNOs between AQUA and METOP-B
